Cork, Ireland

5:59 AM IST on April 27, 2018 (GMT +0100)
Cork

Weather History for EICK - August, 2013

Change the Weather History Date:

Sunday, August 25, 2013

  Actual Average Record
Temperature  
Mean Temperature 60 °F -  
Max Temperature 66 °F 62 °F 69 °F (2007)
Min Temperature 53 °F 50 °F 46 °F (2005)
Degree Days  
Heating Degree Days 6    
Growing Degree Days 10 (Base 50)    
Moisture  
Dew Point 54 °F    
Average Humidity 82    
Maximum Humidity 100    
Minimum Humidity 58    
Precipitation  
Precipitation 0.00 in 0.13 in - ()
Sea Level Pressure  
Sea Level Pressure 30.11 in    
Wind  
Wind Speed 12 mph ()    
Max Wind Speed 20 mph    
Max Gust Speed -    
Visibility 6.5 miles    
Events      
Averages and records for this station are not official NWS values.
T = Trace of Precipitation, MM = Missing Value Source: Averaged Metar Reports

Daily Weather History Graph

Daily Weather History Graph

Search for Another Location

Airport or City:

Astronomy

Aug. 25, 2013 Rise Set
Actual Time 6:34 AM IST 8:36 PM IST
Civil Twilight 5:58 AM IST 9:12 PM IST
Nautical Twilight 5:13 AM IST 9:56 PM IST
Astronomical Twilight 4:21 AM IST 10:48 PM IST
Moon 10:13 PM IST (8/25) 12:05 PM IST (8/25)
Length of Visible Light 15h 13m
Length of Day
14h 01m
Waning Gibbous, 78% of the Moon is Illuminated
Aug 25
Waning Gibbous
Aug 28
Last Quarter
Sep 5
New
Sep 12
First Quarter
Sep 19
Full

Hourly Weather History & Observations

Time (IST) Temp. Dew Point Humidity Pressure Visibility Wind Dir Wind Speed Gust Speed Precip Events Conditions
12:00 AM 55.4 °F 53.6 °F 94% 30.01 in 6.2 mi NW 9.2 mph - N/A   Mostly Cloudy
12:30 AM 55.4 °F 53.6 °F 94% 30.01 in 6.2 mi WNW 10.4 mph - N/A   Mostly Cloudy
1:00 AM 56 °F 54 °F 91% 30.02 in 12 mi NW 11.2 mph - -   Partly Cloudy
1:00 AM 55.4 °F 53.6 °F 94% 30.01 in 6.2 mi NW 11.5 mph - N/A   Mostly Cloudy
1:30 AM 55.4 °F 53.6 °F 94% 30.01 in 6.2 mi NW 11.5 mph - N/A   Scattered Clouds
2:00 AM 55.4 °F 53.6 °F 94% 30.01 in 6.2 mi NW 15.0 mph - N/A   Mostly Cloudy
2:30 AM 55.4 °F 53.6 °F 94% 30.01 in 6.2 mi NW 12.7 mph - N/A   Scattered Clouds
3:00 AM 55.4 °F 53.6 °F 94% 30.01 in 6.2 mi NNW 12.7 mph - N/A   Scattered Clouds
3:30 AM 55.4 °F 53.6 °F 94% 30.01 in 6.2 mi NW 10.4 mph - N/A   Mostly Cloudy
4:00 AM 55.4 °F 53.6 °F 94% 30.01 in 6.2 mi NNW 11.5 mph - N/A   Mostly Cloudy
4:30 AM 55.4 °F 53.6 °F 94% 30.01 in 6.2 mi NW 13.8 mph - N/A   Mostly Cloudy
5:00 AM 55.4 °F 53.6 °F 94% 30.04 in 6.2 mi NNW 12.7 mph - N/A   Mostly Cloudy
5:30 AM 55.4 °F 53.6 °F 94% 30.04 in 6.2 mi NNW 16.1 mph - N/A   Mostly Cloudy
6:00 AM 55.4 °F 53.6 °F 94% 30.06 in 6.2 mi NNW 16.1 mph - N/A   Mostly Cloudy
6:30 AM 55.4 °F 53.6 °F 94% 30.06 in 6.2 mi NNW 15.0 mph - N/A   Mostly Cloudy
7:00 AM 55 °F 53 °F 92% 30.08 in 16 mi NNW 17.9 mph - -   Partly Cloudy
7:00 AM 55.4 °F 53.6 °F 94% 30.06 in 6.2 mi NNW 17.3 mph - N/A   Scattered Clouds
7:30 AM 53.6 °F 53.6 °F 100% 30.06 in 6.2 mi NNW 17.3 mph - N/A   Scattered Clouds
8:00 AM 53.6 °F 53.6 °F 100% 30.09 in 6.2 mi NNW 16.1 mph - N/A   Scattered Clouds
8:30 AM 55.4 °F 53.6 °F 94% 30.09 in 6.2 mi NNW 17.3 mph - N/A   Scattered Clouds
9:00 AM 57.2 °F 53.6 °F 88% 30.09 in 6.2 mi NNW 18.4 mph - N/A   Scattered Clouds
9:30 AM 59.0 °F 51.8 °F 77% 30.09 in 6.2 mi North 18.4 mph - N/A   Partly Cloudy
10:00 AM 59.0 °F 51.8 °F 77% 30.09 in 6.2 mi North 18.4 mph - N/A   Partly Cloudy
10:30 AM 60.8 °F 53.6 °F 77% 30.12 in 6.2 mi NNW 19.6 mph - N/A   Scattered Clouds
11:00 AM 60.8 °F 53.6 °F 77% 30.12 in 6.2 mi NNW 18.4 mph - N/A   Partly Cloudy
11:30 AM 62.6 °F 53.6 °F 72% 30.12 in 6.2 mi NNW 16.1 mph - N/A   Scattered Clouds
12:00 PM 64.4 °F 53.6 °F 68% 30.12 in 6.2 mi North 13.8 mph - N/A   Scattered Clouds
12:30 PM 64.4 °F 53.6 °F 68% 30.12 in 6.2 mi NNW 16.1 mph - N/A   Scattered Clouds
1:00 PM 64 °F 53 °F 58% 30.15 in 31 mi North 13.4 mph - -   Partly Cloudy
1:00 PM 64.4 °F 53.6 °F 68% 30.15 in 6.2 mi North 12.7 mph - N/A   Scattered Clouds
1:30 PM 64.4 °F 53.6 °F 68% 30.15 in 6.2 mi NNW 15.0 mph - N/A   Mostly Cloudy
2:00 PM 66.2 °F 55.4 °F 68% 30.15 in 6.2 mi NNW 13.8 mph - N/A   Mostly Cloudy
2:30 PM 64.4 °F 53.6 °F 68% 30.15 in 6.2 mi NNW 12.7 mph - N/A   Mostly Cloudy
3:00 PM 62.6 °F 53.6 °F 72% 30.15 in 6.2 mi NNW 15.0 mph - N/A   Mostly Cloudy
3:30 PM 64.4 °F 53.6 °F 68% 30.15 in 6.2 mi North 13.8 mph - N/A   Mostly Cloudy
4:00 PM 64.4 °F 53.6 °F 68% 30.15 in 6.2 mi NNW 16.1 mph - N/A   Mostly Cloudy
4:30 PM 64.4 °F 53.6 °F 68% 30.15 in 6.2 mi NNW 16.1 mph - N/A   Mostly Cloudy
5:00 PM 62.6 °F 53.6 °F 72% 30.15 in 6.2 mi North 13.8 mph - N/A   Mostly Cloudy
5:30 PM 62.6 °F 51.8 °F 68% 30.15 in 6.2 mi North 15.0 mph - N/A   Mostly Cloudy
6:00 PM 62.6 °F 51.8 °F 68% 30.15 in 6.2 mi North 12.7 mph - N/A   Mostly Cloudy
6:30 PM 62.6 °F 51.8 °F 68% 30.18 in 6.2 mi North 11.5 mph - N/A   Mostly Cloudy
7:00 PM 62 °F 53 °F 65% 30.18 in 25 mi North 11.2 mph - -   Mostly Cloudy
7:00 PM 62.6 °F 53.6 °F 72% 30.18 in 6.2 mi North 11.5 mph - N/A   Mostly Cloudy
7:30 PM 60.8 °F 53.6 °F 77% 30.18 in 6.2 mi NNW 13.8 mph - N/A   Partly Cloudy
8:00 PM 60.8 °F 55.4 °F 82% 30.18 in 6.2 mi NNW 12.7 mph - N/A   Mostly Cloudy
8:30 PM 59.0 °F 53.6 °F 82% 30.18 in 6.2 mi NNW 12.7 mph - N/A   Mostly Cloudy
9:00 PM 59.0 °F 55.4 °F 88% 30.18 in 6.2 mi NNW 10.4 mph - N/A   Mostly Cloudy
9:30 PM 59.0 °F 55.4 °F 88% 30.18 in 6.2 mi NNW 11.5 mph - N/A   Mostly Cloudy
10:00 PM 59.0 °F 55.4 °F 88% 30.18 in 6.2 mi NNW 10.4 mph - N/A   Mostly Cloudy
10:30 PM 59.0 °F 55.4 °F 88% 30.18 in 6.2 mi NNW 10.4 mph - N/A   Mostly Cloudy
11:00 PM 57.2 °F 55.4 °F 94% 30.18 in 6.2 mi NNW 11.5 mph - N/A   Mostly Cloudy
11:30 PM 57.2 °F 53.6 °F 88% 30.18 in 6.2 mi NNW 12.7 mph - N/A   Scattered Clouds